User: anonymous   Login
Location: *
(37.5724°S, 58.0067°E)
Time: 04:33:43
(UTC+00:00)
Language:

In-Cosmos 22 - Orbit

View from above orbital plane
View from above orbital plane
View from above satellite
View from above satellite

Ground track
Ground track

The orbit data is extracted from the following two-line orbital elements,

1 12645U 81075A   20337.48160429  .00000074  00000-0  29494-4 0  9991
2 12645  81.2198  50.1129 0062716 250.1342 109.3067 14.18380306 33305
Epoch (UTC): 02 December 2020 11:33:30
Eccentricity: 0.0062716
inclination: 81.2198°
perigee height: 785 km
apogee height: 876 km
right ascension of ascending node: 50.1129°
argument of perigee: 250.1342°
revolutions per day: 14.18380306
mean anomaly at epoch: 109.3067°
orbit number at epoch: 3330

The dashed part of the orbit path shows where the satellite is in the earth's shadow,  

DLR